Tracking 18980 objects as of 22-Feb-2018
HD Live streaming from Space Station
objects crossing your sky now

TANSEI 3 (MS-T3)

Track TANSEI 3 (MS-T3) now!
10-day predictions
TANSEI 3 (MS-T3) is classified as:


NORAD ID: 9841
Int'l Code: 1977-012A
Perigee: 809.8 km
Apogee: 3,805.4 km
Inclination: 65.8 °
Period: 134.1 minutes
Semi major axis: 8678 km
RCS: 1.5301 m2 (large)
Launch date: February 19, 1977
Source: Japan (JPN)
Launch site: KAGOSHIMA SPACE CENTER UNIVERSITY OF TOKYO (KSCUT)
aabbcc
Your satellite tracking list
Your tracking list is empty




NASA's NSSDC Master Catalog

Two Line Element Set (TLE):
1  9841U 77012A   18051.96322427 +.00000015 +00000-0 +14541-3 0  9993
2  9841 065.7607 015.7816 1725863 041.0574 330.8119 10.73815095607474
Source of the keplerian elements: AFSPC